This is the latest recevied weather packets stored in our database for station/object CE3TDM-12. If no packets are shown the sender has not sent any weather packets the latest 10 day(s).
| Time | Temp. | Humidity | Pressure | Rain* | Wind** | Luminosity | Snow |
|---|---|---|---|---|---|---|---|
| 1788023327 | 17.22° C | 46% | 776.2 hPa | - | - | - | - |
| 1788023027 | 17.22° C | 46% | 776.3 hPa | - | - | - | - |
| 1788022726 | 17.22° C | 46% | 776.3 hPa | - | - | - | - |
| 1788022426 | 15.56° C | 47% | 776.3 hPa | - | - | - | - |
| 1788022126 | 15.56° C | 47% | 776.4 hPa | - | - | - | - |
| 1788021825 | 16.11° C | 46% | 776.6 hPa | - | - | - | - |
| 1788021525 | 15° C | 47% | 776.6 hPa | - | - | - | - |
| 1788021222 | 15° C | 46% | 776.6 hPa | - | - | - | - |
| 1788020919 | 13.33° C | 48% | 776.7 hPa | - | - | - | - |
| 1788020618 | 13.33° C | 48% | 776.7 hPa | - | - | - | - |
| 1788020317 | 12.78° C | 48% | 776.7 hPa | - | - | - | - |
| 1788020017 | 12.78° C | 49% | 776.6 hPa | - | - | - | - |
| 1788019716 | 12.78° C | 48% | 776.7 hPa | - | - | - | - |
| 1788019416 | 12.22° C | 49% | 776.8 hPa | - | - | - | - |
| 1788019115 | 11.11° C | 50% | 776.7 hPa | - | - | - | - |
| 1788018815 | 11.11° C | 50% | 776.7 hPa | - | - | - | - |
| 1788018514 | 10.56° C | 52% | 776.8 hPa | - | - | - | - |
| 1788018212 | 10.56° C | 51% | 776.7 hPa | - | - | - | - |
| 1788017911 | 10.56° C | 50% | 776.7 hPa | - | - | - | - |
| 1788017611 | 10.56° C | 50% | 776.8 hPa | - | - | - | - |
| 1788017311 | 10.56° C | 51% | 776.8 hPa | - | - | - | - |
| 1788017010 | 10° C | 51% | 776.8 hPa | - | - | - | - |
| 1788016710 | 10° C | 51% | 776.8 hPa | - | - | - | - |
| 1788016409 | 9.44° C | 51% | 776.8 hPa | - | - | - | - |
| 1788016109 | 10° C | 51% | 776.8 hPa | - | - | - | - |
* Rain since midnight (hover to see other rain measurements)
** Current wind speed in m/s (hover to see current wind gust speed)